RH
42 45 35 30 32 51 48 47 47 46 49 50 48 44 43 52 56 47 41 36 73 88 78 75 63 64 86 69 79 83 81 76 95 96 97 100 99 96 95 84 85 85 89
34 40 40 32 32 50 51 46 47 48 47 48 49 47 45 49 51 41 66 88 88 82 84 88 84 67 79 59 54 70 73 75 79 79 78 88 99 100 98 92 78 83 86
41 39 43 36 36 50 54 51 49 50 51 51 51 51 49 50 48 57 80 86 84 84 89 68 60 54 44 40 32 42 57 53 53 59 64 65 93 88 88 72 63 63 60
44 47 43 39 38 51 57 57 54 57 54 55 55 54 52 50 49 72 79 81 81 81 88 63 49 35 34 30 35 42 54 73 35 40 48 55 96 97 74 66 45 48 47
49 51 49 41 36 51 60 61 63 60 61 59 59 60 57 47 50 71 77 79 80 86 96 60 58 37 32 33 44 88 75 85 52 38 39 42 88 100 80 66 31 32 26
46 51 54 46 41 52 66 66 71 70 67 64 64 65 64 42 56 70 80 77 78 86 86 53 35 42 30 38 63 63 86 80 62 35 35 31 76 99 99 98 56 28 20
48 59 53 50 53 55 81 75 74 80 77 69 71 67 69 49 55 66 64 70 68 60 42 25 21 27 30 43 64 79 62 61 47 37 34 73 98 76 82 100 65 70 25
52 51 62 59 61 69 83 87 79 88 91 77 74 73 70 52 53 57 60 52 47 40 33 19 17 23 30 58 71 55 55 37 42 45 64 80 98 78 52 94 80 58 35
69 58 78 73 67 91 87 87 87 89 85 86 81 82 72 60 69 77 72 54 48 35 27 15 14 20 29 64 81 66 57 57 36 28 80 78 98 87 36 80 46 66 50
68 66 80 82 78 90 89 87 86 89 89 88 92 93 90 77 76 96 92 57 52 38 26 16 13 20 26 70 86 79 48 36 40 27 51 70 70 74 32 64 32 20 30
66 69 79 83 88 89 91 87 87 92 89 88 93 95 94 89 85 97 92 66 50 45 28 16 13 18 42 71 75 71 61 43 33 27 46 47 68 69 17 38 24 12 16
74 68 67 79 88 87 92 90 89 91 92 89 92 97 99 94 83 85 82 95 74 61 30 20 14 24 42 66 69 66 50 55 46 26 26 69 32 42 18 17 19 13 11
98 90 65 74 77 87 86 93 93 92 99 95 93 95 99 100 95 83 85 100 99 83 57 24 19 27 52 66 66 49 54 50 40 30 26 36 22 23 13 13 13 13 12
85 100 82 53 69 79 83 86 95 95 100 100 97 99 99 100 100 89 83 91 95 89 52 22 24 32 51 60 58 46 47 45 37 34 37 25 18 21 15 14 14 13 12
73 95 100 71 63 76 83 86 91 94 97 99 99 100 99 99 99 97 84 82 74 79 55 37 30 37 45 55 61 44 46 44 35 32 47 28 20 22 17 15 14 13 13
70 88 92 96 85 63 79 94 89 92 94 99 100 99 99 99 98 100 89 84 77 89 66 43 31 39 45 51 49 50 43 41 33 25 29 27 25 22 28 16 15 14 14
59 71 83 98 100 85 61 74 94 96 87 97 100 99 100 100 98 100 95 81 82 89 72 55 41 49 52 54 51 43 42 39 33 24 25 17 16 20 24 27 17 16 16
40 63 73 86 100 97 73 63 68 88 85 90 100 99 99 100 99 100 99 82 82 83 81 72 47 46 53 56 58 51 45 41 32 27 23 20 18 17 16 18 17 17 17
26 57 68 92 96 100 79 66 63 70 89 96 99 100 100 100 98 98 100 86 81 86 74 61 61 45 47 58 63 58 54 47 32 28 20 17 16 15 14 15 16 17 18
26 41 63 81 88 99 91 78 74 75 77 98 100 99 95 98 100 99 99 91 78 86 88 78 59 67 47 46 60 63 57 45 32 23 16 14 13 13 14 14 15 17 18
53 63 47 72 85 96 99 89 79 80 74 80 98 100 81 75 88 100 100 95 76 80 83 91 67 58 64 52 45 62 63 47 30 22 15 13 12 12 13 15 15 18 19
71 65 66 55 70 86 100 78 66 66 69 64 81 83 80 75 88 100 100 98 88 85 92 90 72 60 56 57 41 40 53 39 26 17 13 12 12 12 13 14 16 18 20
100 90 67 65 86 82 99 75 67 70 77 79 91 98 97 98 76 82 81 98 95 91 84 63 66 59 35 48 40 24 30 24 22 17 13 12 12 12 13 14 16 17 19
100 92 70 84 78 78 98 78 67 66 85 89 85 95 99 100 99 97 92 97 92 97 83 75 60 56 29 25 36 23 17 15 18 17 14 12 13 13 14 14 15 18 19
100 100 79 79 64 73 89 84 73 67 81 85 85 96 99 100 100 100 100 99 96 71 78 64 61 60 34 23 22 24 18 16 14 14 14 14 14 14 15 15 16 17 20
100 100 81 81 76 99 84 95 79 78 99 89 94 99 98 99 99 100 100 99 96 96 82 51 43 38 29 26 20 20 19 16 15 14 15 14 14 16 16 17 18 18 20
Wind_Speed
26 23 25 23 20 29 31 32 32 30 28 27 26 25 25 25 24 23 24 24 24 24 22 21 19 19 19 19 21 20 18 17 22 21 23 23 22 24 23 22 22 21 20
23 25 26 24 23 30 32 33 33 31 29 28 27 26 25 24 24 24 25 25 24 23 22 19 19 19 20 19 18 20 18 16 14 15 17 20 21 22 20 21 18 19 18
22 25 25 27 26 30 34 34 33 31 29 28 28 27 25 25 25 26 24 24 22 19 20 16 16 17 17 20 19 18 17 15 12 11 11 15 16 16 16 15 13 12 11
20 24 24 25 30 32 35 35 33 31 29 29 28 28 26 26 27 25 25 24 21 19 18 15 14 14 18 18 18 18 16 14 14 12 14 16 19 18 16 14 13 12 12
20 21 26 28 31 34 37 35 33 31 30 29 29 28 27 28 29 27 26 24 21 17 17 13 11 13 17 20 20 20 17 14 12 13 14 16 18 17 17 16 14 13 13
20 21 22 32 34 36 38 37 33 32 30 29 29 29 29 30 31 30 27 25 21 16 15 11 10 15 17 23 21 17 15 10 9 12 16 17 20 19 20 20 19 18 17
21 21 22 31 36 37 38 37 35 33 31 30 29 31 30 32 32 31 28 24 20 15 12 9 10 18 21 25 22 17 14 11 13 15 18 21 20 19 19 19 21 21 17
24 24 22 27 37 38 38 37 35 35 32 30 29 30 31 33 30 29 27 23 19 15 11 10 11 20 25 26 21 16 12 13 14 17 20 21 20 19 17 19 19 19 18
22 24 23 23 37 37 38 37 36 37 34 31 30 29 29 31 29 27 26 22 19 15 12 11 13 23 27 26 21 16 12 12 14 16 20 21 19 18 16 18 17 18 18
23 26 25 24 34 37 39 39 38 38 36 33 31 30 29 30 29 27 25 22 20 16 13 13 17 25 26 26 21 16 14 13 14 15 19 18 18 17 17 17 16 15 17
26 29 27 26 28 39 41 41 40 40 38 36 33 32 30 30 30 28 26 22 20 18 15 16 20 25 30 28 22 17 13 16 14 15 18 18 17 17 16 16 16 14 16
22 30 30 29 31 37 42 43 41 41 40 39 37 35 33 32 30 30 27 24 21 19 17 18 23 29 30 28 23 18 14 13 13 16 17 18 16 16 16 15 16 15 16
14 26 35 33 35 38 44 45 44 43 43 42 42 40 36 34 30 30 29 27 23 22 22 21 27 30 31 28 23 19 15 14 16 17 18 16 16 15 15 15 15 15 15
22 20 34 37 38 38 42 46 46 46 46 46 46 44 40 37 34 33 34 32 28 25 23 23 31 33 31 27 22 19 15 14 16 17 18 16 15 15 14 14 14 14 14
30 20 26 35 38 39 43 46 48 48 48 48 49 48 44 42 37 35 35 34 32 28 25 25 34 35 32 28 23 18 16 15 16 17 18 16 15 14 13 13 13 13 13
39 28 20 31 39 38 40 45 50 51 51 50 51 50 47 45 41 38 37 35 33 30 28 28 35 35 32 28 24 20 17 16 16 15 17 17 15 14 13 13 12 12 11
47 37 24 23 33 42 39 43 47 52 51 50 52 52 50 48 45 43 39 37 36 34 31 30 33 35 32 28 24 21 19 16 16 16 15 14 14 14 13 12 11 10 9
49 44 38 25 25 41 43 42 43 47 49 52 52 55 53 53 49 46 42 40 39 37 34 32 35 36 33 29 26 22 19 17 17 17 16 14 13 11 11 11 10 10 8
43 47 44 42 28 27 42 43 44 44 45 56 56 55 58 61 55 51 45 41 42 40 36 33 35 35 36 32 28 24 20 18 18 19 18 16 14 13 10 10 9 9 8
37 44 53 40 33 22 43 40 40 41 44 46 50 47 36 50 54 53 48 43 45 43 40 36 36 36 36 36 32 26 22 19 18 18 17 17 15 13 11 10 9 9 8
35 37 51 45 40 31 39 43 39 40 37 40 46 34 20 23 32 53 52 47 47 45 44 40 38 38 37 36 35 29 24 21 19 18 18 17 15 14 13 11 10 9 7
32 32 30 35 40 33 29 46 44 40 38 36 34 32 25 22 37 47 47 51 43 46 45 42 40 41 39 38 35 32 22 21 22 21 20 18 17 16 15 13 11 10 8
16 31 35 32 40 38 31 44 44 41 38 38 34 30 35 42 34 37 31 38 40 44 43 40 39 41 43 41 34 20 14 11 24 24 23 21 20 18 17 15 13 11 10
18 20 30 30 36 38 30 44 48 47 44 42 37 34 38 41 40 38 43 49 30 40 37 38 37 39 41 43 39 31 20 13 18 16 27 24 23 21 20 18 15 14 12
14 15 27 30 31 40 40 47 48 49 49 46 42 41 42 49 46 44 48 50 44 37 40 39 40 42 38 41 41 41 24 18 17 15 21 29 27 25 23 20 18 16 15
15 9 18 27 34 32 43 50 53 47 51 50 48 46 47 48 51 48 44 47 47 47 49 44 40 40 39 39 39 38 36 27 23 18 15 26 30 26 24 21 21 18 17
Wind_Direction
196 209 208 205 193 181 177 173 171 170 168 164 161 158 154 151 145 142 141 137 126 122 122 128 130 128 125 129 129 123 124 122 111 110 105 101 101 102 105 106 105 102 101
205 199 201 194 189 182 180 175 173 172 171 167 163 160 156 152 146 142 134 126 132 132 132 127 127 131 129 133 130 120 121 119 114 114 112 108 104 103 102 101 100 97 94
195 194 192 193 190 184 182 179 176 174 171 170 166 163 158 153 146 139 134 139 140 142 139 144 143 135 131 118 118 121 118 127 127 125 123 116 104 105 107 110 108 103 100
194 188 192 199 192 185 184 182 179 177 173 171 170 165 160 155 148 143 145 146 150 151 148 145 141 134 127 121 116 118 120 123 128 129 124 115 101 94 101 105 111 113 110
195 200 197 197 198 188 185 185 182 179 177 173 171 167 163 158 152 151 152 155 158 160 145 148 149 134 127 120 121 122 129 134 116 124 125 116 104 99 106 104 111 109 101
210 206 205 198 196 191 187 186 186 182 180 177 174 169 165 162 157 157 160 165 169 164 149 153 154 142 133 127 133 137 132 140 129 123 120 112 104 99 95 95 97 99 95
216 215 205 204 197 193 188 189 189 187 184 181 177 173 170 165 166 166 168 171 176 177 169 165 150 145 137 136 139 143 149 136 132 125 119 108 106 105 100 97 99 97 101
210 223 207 207 198 194 190 192 191 189 186 184 181 178 176 175 173 170 174 176 177 177 178 170 156 146 140 139 145 154 147 130 128 123 113 108 105 104 105 99 98 100 100
205 223 207 207 201 194 192 194 192 191 189 187 184 180 178 175 174 172 177 176 178 179 180 173 164 150 144 143 145 150 147 133 133 129 113 111 107 105 106 102 99 97 96
206 220 215 210 205 197 197 197 195 194 190 190 186 183 182 178 177 172 174 179 181 182 181 177 163 151 148 146 150 159 155 141 137 134 122 116 115 111 109 104 101 96 95
207 212 214 212 207 200 199 200 197 195 191 192 190 190 187 184 181 176 181 180 179 184 184 169 156 154 148 151 159 161 156 141 141 137 125 123 118 114 116 110 103 97 94
206 211 219 217 211 207 202 202 201 197 194 193 195 193 192 190 186 184 182 179 177 185 178 170 156 155 154 157 164 164 160 152 148 143 133 124 123 120 117 110 107 103 100
234 218 213 221 216 209 207 203 202 200 197 196 197 196 197 194 185 185 179 176 177 171 170 172 159 158 157 164 172 170 164 160 157 150 136 131 129 125 122 117 113 109 106
265 246 220 223 216 211 212 209 204 202 201 199 199 200 198 195 189 186 183 184 185 183 180 173 161 162 163 169 177 174 169 165 161 152 139 137 135 130 126 121 117 113 109
281 271 227 226 222 219 213 209 209 206 205 203 202 203 201 196 193 191 190 189 193 190 188 175 165 167 168 173 179 181 171 168 168 157 144 142 140 135 132 125 120 116 113
275 265 249 224 228 222 217 215 212 211 208 207 205 207 206 201 200 196 194 194 192 191 188 176 169 171 171 178 182 182 176 172 172 167 158 150 146 142 136 132 126 122 119
270 269 257 256 230 227 220 221 218 214 210 208 209 211 209 209 203 199 197 196 194 190 191 175 171 174 175 180 185 183 177 172 175 173 167 159 155 151 147 140 136 129 121
269 266 255 251 267 230 223 223 222 219 214 212 211 212 215 209 208 201 199 199 195 192 190 180 178 177 181 183 184 184 179 178 176 176 170 166 164 161 158 151 144 137 129
271 260 266 248 242 248 224 221 221 219 213 212 210 201 201 207 212 205 202 201 196 194 195 189 181 185 182 183 186 185 183 181 180 180 178 176 175 171 165 158 156 149 141
270 261 257 245 260 252 227 218 218 217 216 217 195 183 185 188 193 208 202 201 196 196 198 197 188 186 188 185 185 185 185 185 182 184 184 183 183 183 182 176 172 164 160
277 262 254 256 251 252 227 214 210 209 212 218 223 211 215 211 210 197 199 196 197 198 200 200 191 187 188 190 184 183 186 190 192 191 191 191 189 193 192 193 189 183 178
272 263 266 264 255 254 234 217 212 211 211 217 221 226 214 201 209 195 195 193 195 199 199 201 196 186 193 191 187 178 179 193 199 200 198 199 198 200 203 197 205 196 191
265 253 251 254 237 242 245 213 213 211 205 207 213 213 203 188 200 215 220 219 201 203 202 205 202 201 193 193 191 182 168 199 198 206 206 204 207 209 208 207 210 211 203
284 253 242 249 237 243 239 211 210 208 202 204 206 203 204 205 210 216 217 214 226 205 210 210 207 208 205 197 191 197 197 198 183 202 211 209 212 213 213 214 211 218 219
328 267 239 254 255 259 241 210 212 211 206 203 204 201 205 207 213 203 203 205 205 214 209 218 212 210 211 209 203 201 201 195 198 195 202 209 215 213 216 216 216 219 223
354 334 245 249 259 250 234 219 216 208 205 201 200 201 201 205 203 207 216 215 210 209 203 207 216 214 214 211 215 212 212 205 205 204 202 208 216 217 218 217 221 221 225